sat.trackr.live / text

‹ back to catalog

QB50P1

NORAD 40025 · 2014-033R

PAYLOAD ACTIVE UNKNOWN

§ Identity

Operator
Country
BEL
Launch date
2014-06-19
Launch site
DLS
Launch vehicle
Mass (kg)
RCS (m²)
0.06

Purposes: comms, tech_demo

External: N2YO · Heavens-Above · Gunter

§ Orbital elements

Epoch: 2026-09-20T00:20:13.530336Z

Period
94.77 min
Inclination
98.0973°
Eccentricity
0.0006905
Mean motion
15.19503230 rev/d
Perigee alt
502.6 km
Apogee alt
512.1 km
Semi-major
6,885.5 km
B*
2.3303e-4
RAAN
280.9069°
Arg perigee
257.7849°
Mean anomaly
102.2611°
Rev number
66,742

§ Raw data

QB50P11 40025U 14033R   26263.01404549  .00004872  00000+0  23303-3 0  99922 40025  98.0973 280.9069 0006905 257.7849 102.2611 15.19503230667422

JSON: /api/v1/satellites/40025 · /tle

For live sub-satellite position, see the globe view (requires WebGL).

§ Visibility from observer

Set your observer location to see the next 7 days of passes ≥ 10°. The values pass through the URL so the page stays shareable.

No JS? Fill the form by hand. The geolocation button needs JavaScript.

§ Radio — SatNOGS DB

ModeDescriptionDownlinkUplink
BPSK BPSK Telemetry 145.815 MHz
CW CW Beacon 145.880 MHz
USB Linear Transponder 145.935 MHz–145.965 MHz 435.047 MHz–435.077 MHz
BPSK PE0SAT - 1k2 BPSK TLM 145.814 MHz

4 transmitters · refreshed weekly from db.satnogs.org